| time (UTC) | temp F | wind direction | speed knots | gust knots | rain 1hr in | rain 24hr in | rain mn in | humidity % | barometer mb |
| 20260504174541 | 51 | 360 | 0.0 | 2.6 | 0.00 | 0.00 | 0.00 | 49 | 1008.1 |
| 20260504173040 | 50 | 360 | 0.0 | 4.3 | 0.00 | 0.00 | 0.00 | 52 | 1008.2 |
| 20260504171546 | 50 | 360 | 0.0 | 0.9 | 0.00 | 0.00 | 0.00 | 50 | 1008.3 |
| 20260504081548 | 52 | 360 | 0.0 | 0.0 | 0.00 | 0.00 | 0.00 | 38 | 1004.8 |
| 20260504044541 | 54 | 360 | 0.0 | 0.0 | 0.00 | 0.00 | 0.00 | 36 | 1005.3 |
| 20260504043031 | 54 | 360 | 0.0 | 0.0 | 0.00 | 0.00 | 0.00 | 36 | 1005.2 |
| 20260504041531 | 55 | 360 | 0.0 | 0.0 | 0.00 | 0.00 | 0.00 | 37 | 1005.2 |
| 20260504040042 | 55 | 360 | 0.0 | 0.0 | 0.00 | 0.00 | 0.00 | 37 | 1005.1 |
| 20260504034532 | 55 | 360 | 0.0 | 0.0 | 0.00 | 0.00 | 0.00 | 35 | 1004.9 |
| 20260504033029 | 57 | 360 | 0.0 | 0.0 | 0.00 | 0.00 | 0.00 | 33 | 1004.6 |
| 20260504031531 | 57 | 360 | 0.0 | 0.0 | 0.00 | 0.00 | 0.00 | 32 | 1004.4 |
| 20260504030029 | 57 | 360 | 0.0 | 0.0 | 0.00 | 0.00 | 0.00 | 33 | 1004.4 |
| 20260504024528 | 59 | 360 | 0.0 | 0.0 | 0.00 | 0.00 | 0.00 | 31 | 1004.2 |
| 20260504023028 | 61 | 360 | 0.0 | 0.0 | 0.00 | 0.00 | 0.00 | 31 | 1004.2 |
| 20260504021527 | 62 | 360 | 0.0 | 0.0 | 0.00 | 0.00 | 0.00 | 30 | 1004.0 |
| 20260504020026 | 65 | 360 | 0.0 | 0.0 | 0.00 | 0.00 | 0.00 | 30 | 1004.1 |
| 20260504014524 | 66 | 360 | 0.0 | 0.0 | 0.00 | 0.00 | 0.00 | 25 | 1004.1 |
| 20260504013029 | 66 | 360 | 0.0 | 0.0 | 0.00 | 0.00 | 0.00 | 28 | 1004.2 |
| 20260504011520 | 66 | 360 | 0.0 | 0.0 | 0.00 | 0.00 | 0.00 | 26 | 1004.4 |
| 20260504010019 | 66 | 360 | 0.0 | 0.9 | 0.00 | 0.00 | 0.00 | 25 | 1004.5 |
| 20260504004517 | 67 | 360 | 0.0 | 0.0 | 0.00 | 0.00 | 0.00 | 29 | 1004.6 |
| 20260504003015 | 67 | 360 | 0.0 | 0.0 | 0.00 | 0.00 | 0.00 | 25 | 1004.8 |
| 20260504001515 | 68 | 360 | 0.0 | 0.9 | 0.00 | 0.00 | 0.00 | 26 | 1004.9 |
| 20260504000011 | 68 | 360 | 0.0 | 0.0 | 0.00 | 0.00 | 0.00 | 29 | 1005.1 |
| 20260503234509 | 67 | 360 | 0.0 | 0.0 | 0.00 | 0.00 | 0.00 | 26 | 1005.3 |
| 20260503233007 | 67 | 360 | 0.0 | 0.9 | 0.00 | 0.00 | 0.00 | 25 | 1005.4 |
| 20260503231505 | 67 | 360 | 0.0 | 2.6 | 0.00 | 0.00 | 0.00 | 27 | 1005.6 |
| 20260503230004 | 66 | 360 | 0.0 | 1.7 | 0.00 | 0.00 | 0.00 | 26 | 1005.8 |
| 20260503224501 | 67 | 360 | 0.0 | 0.9 | 0.00 | 0.00 | 0.00 | 28 | 1005.9 |
| 20260503223059 | 66 | 360 | 0.0 | 0.9 | 0.00 | 0.00 | 0.00 | 28 | 1006.1 |
| 20260503221602 | 66 | 360 | 0.0 | 8.7 | 0.00 | 0.00 | 0.00 | 29 | 1006.3 |
| 20260503220055 | 66 | 360 | 0.0 | 5.2 | 0.00 | 0.00 | 0.00 | 29 | 1006.6 |
| 20260503214600 | 66 | 360 | 0.0 | 2.6 | 0.00 | 0.00 | 0.00 | 30 | 1006.8 |
| 20260503213051 | 66 | 360 | 0.0 | 1.7 | 0.00 | 0.00 | 0.00 | 33 | 1007.1 |
| 20260503211553 | 66 | 360 | 0.0 | 8.7 | 0.00 | 0.00 | 0.00 | 31 | 1007.4 |
| 20260503210045 | 65 | 360 | 0.0 | 0.0 | 0.00 | 0.00 | 0.00 | 30 | 1007.6 |
| 20260503204552 | 64 | 360 | 0.0 | 1.7 | 0.00 | 0.00 | 0.00 | 37 | 1007.8 |
| 20260503203045 | 65 | 360 | 0.0 | 1.7 | 0.00 | 0.00 | 0.00 | 40 | 1008.0 |
| 20260503201538 | 64 | 360 | 0.0 | 7.8 | 0.00 | 0.00 | 0.00 | 38 | 1008.2 |
| 20260503200036 | 64 | 360 | 0.0 | 4.3 | 0.00 | 0.00 | 0.00 | 33 | 1008.5 |
| 20260503194537 | 64 | 360 | 0.0 | 1.7 | 0.00 | 0.00 | 0.00 | 35 | 1008.6 |
| 20260503193030 | 63 | 360 | 0.0 | 1.7 | 0.00 | 0.00 | 0.00 | 35 | 1008.8 |
| 20260503191528 | 63 | 360 | 0.0 | 7.8 | 0.00 | 0.00 | 0.00 | 36 | 1009.1 |
| 20260503190043 | 63 | 360 | 0.0 | 0.9 | 0.00 | 0.00 | 0.00 | 37 | 1009.3 |
| 20260503184522 | 62 | 360 | 0.0 | 0.0 | 0.00 | 0.00 | 0.00 | 36 | 1009.4 |
| 20260503183022 | 62 | 360 | 0.0 | 0.0 | 0.00 | 0.00 | 0.00 | 37 | 1009.6 |
| 20260503181517 | 61 | 360 | 0.0 | 0.0 | 0.00 | 0.00 | 0.00 | 39 | 1009.7 |
| 20260503180032 | 61 | 360 | 0.0 | 0.9 | 0.00 | 0.00 | 0.00 | 42 | 1009.8 |